This demonstration page uses our WeatherBlox Daily Observations layout. Learn more.

41.55636, -103.73856

Hourly Observations for March 8, 2019

Temp ( °F °C ) Dew Point ( °F °C ) Humidity (%) Winds ( mph kmh ) Pressure ( in mb ) Visibility ( mi km ) Precip ( " mm )
12:34 am 00:34 Mostly Cloudy with Freezing Fog 12 -11 10 -12 92 92 WNW 3 6 30.12 1020 0.5 0.804672 0 0
12:41 am 00:41 Mostly Cloudy with Freezing Fog 13 -10.6 10 -12.2 88 88 Calm 30.12 1020 0.25 0.402336 0 0
12:53 am 00:53 Mostly Cloudy with Freezing Fog 14 -10 12 -11.1 92 92 N 3 6 29.94 1014 0.25 0.402336 0 0
1:53 am 01:53 Mostly Cloudy with Freezing Fog 14 -10 12 -11.1 92 92 NW 5 7 29.91 1013 0.25 0.402336 0 0
2:53 am 02:53 Mostly Cloudy with Freezing Fog 14 -10 11 -11.7 88 88 NNW 5 7 29.88 1012 0.25 0.402336 0 0
3:10 am 03:10 Mostly Cloudy with Freezing Fog 12 -11 10 -12 92 92 NNW 6 9 30.09 1019 0.5 0.804672 0 0
3:18 am 03:18 Mostly Cloudy with Freezing Fog 13 -10.6 11 -11.7 92 92 NNW 6 9 30.09 1019 0.25 0.402336 0 0
3:22 am 03:22 Mostly Cloudy with Freezing Fog 12 -11 10 -12 92 92 N 5 7 30.09 1019 0.5 0.804672 0 0
3:53 am 03:53 Mostly Cloudy with Mist and Fog 12 -11.1 10 -12.2 92 92 NNW 6 9 29.88 1012 0.75 1.207008 0 0
4:05 am 04:05 Cloudy with Mist and Fog 12 -11.1 10 -12.2 92 92 WNW 6 9 30.09 1019 1.75 2.816352 0 0
4:09 am 04:09 Cloudy with Mist and Fog 12 -11.1 10 -12.2 92 92 WNW 7 11 30.09 1019 3 4.828032 0 0
4:21 am 04:21 Cloudy with Mist and Fog 12 -11.1 9 -12.8 87 87 NNW 6 9 30.09 1019 2 3.218688 0 0
4:28 am 04:28 Cloudy with Mist and Fog 10 -12 9 -13 92 92 NW 5 7 30.09 1019 1.75 2.816352 0 0
4:43 am 04:43 Mostly Cloudy with Mist and Fog 11 -11.7 8 -13.3 88 88 NW 6 9 30.09 1019 3 4.828032 0 0
4:53 am 04:53 Partly Cloudy with Mist and Fog 10 -12.2 8 -13.3 92 92 N 6 9 29.91 1013 5 8.04672 0 0
4:56 am 04:56 Partly Cloudy with Mist and Fog 10 -12 9 -13 92 92 N 6 9 30.09 1019 1.75 2.816352 0 0
5:01 am 05:01 Mostly Cloudy with Mist and Fog 11 -11.7 9 -12.8 92 92 N 6 9 30.09 1019 0.75 1.207008 0 0
5:39 am 05:39 Cloudy with Mist and Fog 11 -11.7 9 -12.8 92 92 W 3 6 30.06 1018 2 3.218688 0 0
5:48 am 05:48 Mostly Cloudy with Mist and Fog 10 -12 9 -13 92 92 SW 6 9 30.06 1018 1 1.609344 0 0
5:53 am 05:53 Cloudy with Mist and Fog 11 -11.7 10 -12.2 96 96 SSW 6 9 29.91 1013 1.5 2.414016 0 0
6:10 am 06:10 Cloudy with Mist and Fog 12 -11.1 9 -12.8 87 87 Calm 30.09 1019 3 4.828032 0 0
6:53 am 06:53 Cloudy with Mist and Fog 14 -10 11 -11.7 88 88 Calm 29.91 1013 4 6.437376 0 0
7:41 am 07:41 Cloudy with Mist and Fog 18 -8 14 -10 86 86 ESE 3 6 30.03 1017 5 8.04672 0 0
7:53 am 07:53 Cloudy with Mist and Fog 16 -8.9 14 -10 92 92 ESE 5 7 29.91 1013 4 6.437376 0 0
8:05 am 08:05 Cloudy with Mist and Fog 18 -7.8 17 -8.3 96 96 Calm 30 1016 1.75 2.816352 0 0
8:09 am 08:09 Mostly Cloudy with Freezing Fog 19 -7.2 18 -7.8 96 96 ESE 3 6 29.97 1015 0.25 0.402336 0 0
8:23 am 08:23 Mostly Cloudy with Freezing Fog 19 -7.2 18 -7.8 96 96 SSE 6 9 30.03 1017 0.25 0.402336 0 0
8:29 am 08:29 Mostly Cloudy with Freezing Fog 19 -7.2 18 -7.8 96 96 SSE 6 9 30.03 1017 0.5 0.804672 0 0
8:38 am 08:38 Mostly Cloudy with Freezing Fog 19 -7.2 19 -7.2 100 100 SSE 3 6 30.03 1017 0.5 0.804672 0 0
8:53 am 08:53 Cloudy with Mist and Fog 20 -6.7 19 -7.2 96 96 E 5 7 29.91 1013 1.75 2.816352 0 0
9:00 am 09:00 Mostly Cloudy with Mist and Fog 21 -6 19 -7 93 93 E 6 9 29.97 1015 2.5 4.02336 0 0
9:10 am 09:10 Mostly Cloudy with Mist and Fog 21 -6 21 -6 100 100 ENE 5 7 29.97 1015 3 4.828032 0 0
9:20 am 09:20 Partly Cloudy with Mist and Fog 24 -4.4 24 -4.4 100 100 ENE 3 6 29.94 1014 4 6.437376 0 0
9:53 am 09:53 Cloudy with Mist and Fog 25 -3.9 25 -3.9 100 100 S 6 9 29.88 1012 4 6.437376 0 0
10:53 am 10:53 Sunny with Mist and Fog 29 -1.7 27 -2.8 92 92 S 7 11 29.83 1010 6 9.656064 0 0
11:53 am 11:53 Partly Cloudy with Mist and Fog 31 -0.6 29 -1.7 92 92 Calm 29.8 1009 6 9.656064 0 0
12:53 pm 12:53 Cloudy 34 1.1 29 -1.7 82 82 SSE 8 13 29.74 1007 7 11.265408 0 0
1:53 pm 13:53 Sunny 36 2.2 31 -0.6 82 82 E 6 9 29.65 1004 7 11.265408 0 0
2:53 pm 14:53 Sunny 38 3.3 32 0 79 79 ESE 13 20 29.65 1004 7 11.265408 0 0
3:53 pm 15:53 Partly Cloudy 38 3.3 33 0.6 83 83 E 12 19 29.59 1002 7 11.265408 0 0
4:53 pm 16:53 Partly Cloudy with Mist and Fog 36 2.2 33 0.6 89 89 ESE 10 17 29.59 1002 6 9.656064 0 0
5:28 pm 17:28 Mostly Cloudy with Mist and Fog 36 2 34 1 93 93 E 5 7 29.56 1001 6 9.656064 0 0
5:53 pm 17:53 Cloudy with Mist and Fog 35 1.7 34 1.1 96 96 E 5 7 29.59 1002 6 9.656064 0 0
6:53 pm 18:53 Cloudy with Light Rain 35 1.7 34 1.1 96 96 ENE 7 11 29.59 1002 5 8.04672 0.01 0.254
7:42 pm 19:42 Cloudy with Light Rain 34 1 34 1 100 100 ENE 9 15 29.59 1002 4 6.437376 0 0
7:46 pm 19:46 Cloudy with Nearby Thunderstorms 34 1 34 1 100 100 ENE 9 15 29.59 1002 4 6.437376 0 0
7:51 pm 19:51 Cloudy with Nearby Thunderstorms 34 1 34 1 100 100 E 8 13 29.59 1002 2.5 4.02336 0.07 1.778
7:53 pm 19:53 Cloudy with Nearby Thunderstorms 34 1.1 34 1.1 100 100 E 8 13 29.59 1002 2 3.218688 0.08 2.032
7:59 pm 19:59 Cloudy with Light Snow 34 1.1 34 1.1 100 100 ESE 3 6 29.59 1002 1.25 2.01168 0.01 0.254
8:05 pm 20:05 Cloudy with Light Snow 33 0.6 33 0.6 100 100 E 3 6 29.59 1002 0.75 1.207008 0.03 0.762
8:27 pm 20:27 Cloudy with Heavy Snow 34 1 N/A N/A ENE 6 9 29.59 1002 0.25 0.402336 0.14 3.556
8:48 pm 20:48 Mostly Cloudy with Snow 34 1 N/A N/A NE 6 9 29.59 1002 0.5 0.804672 0 0
8:53 pm 20:53 Mostly Cloudy with Snow 34 1 N/A N/A NE 5 7 29.53 1000 0.5 0.804672 0.27 6.858
9:10 pm 21:10 Mostly Cloudy with Heavy Snow 34 1 N/A N/A Calm 29.59 1002 0.25 0.402336 0 0
9:26 pm 21:26 Mostly Cloudy with Snow 34 1 N/A N/A Calm 29.59 1002 0.5 0.804672 0.16 4.064
9:53 pm 21:53 Mostly Cloudy with Snow 34 1 N/A N/A Calm 29.56 1001 0.5 0.804672 0.23 5.842
10:00 pm 22:00 Mostly Cloudy with Heavy Snow 34 1 N/A N/A Calm 29.59 1002 0.25 0.402336 0 0
10:17 pm 22:17 Mostly Cloudy with Snow 34 1 N/A N/A E 5 7 29.59 1002 0.5 0.804672 0.09 2.286
10:35 pm 22:35 Mostly Cloudy with Scattered Snow Showers 33 0.6 33 0.6 100 100 E 9 15 29.56 1001 1 1.609344 0.13 3.302
10:45 pm 22:45 Cloudy with Light Snow 33 0.6 33 0.6 100 100 E 17 28 29.53 1000 2 3.218688 0.13 3.302
10:53 pm 22:53 Cloudy with Light Snow 33 0.6 33 0.6 100 100 E 17 28 29.44 997 3 4.828032 0.13 3.302
11:53 pm 23:53 Cloudy with Mist and Fog 33 0.6 33 0.6 100 100 SW 3 6 29.5 999 6 9.656064 0.001 0.001

Powered by AerisWeather